When you browse on this site, cookies collect data to enhance your experience and personalize the content and advertising you see.
Visit our Privacy Policy to learn more. By continuing to use the site, you agree to this use of cookies and data.
  • en Suisse
  • Liste des pays
  • À 7 jours
  • Température de l'eau
  • Carte satellitaire
  • Carte météo
  • Widgets météo
  • user-avatar
    Se connecter

    Météo par heure à Batna

    Ce jour, 24 Mai, Vendredi

    Heure Température Précipitation Vent Pression Humidité
    00:00 +19°C° 0 mm 1 m/s 671 mmHg 53%
    01:00 +19°C° 0 mm 1 m/s 670 mmHg 54%
    02:00 +18°C° 0 mm 1 m/s 670 mmHg 56%
    03:00 +18°C° 0 mm 1 m/s 670 mmHg 57%
    04:00 +18°C° 0.1 mm 2 m/s 670 mmHg 56%
    05:00 +18°C° 0.1 mm 2 m/s 670 mmHg 54%
    06:00 +19°C° 0.1 mm 2 m/s 670 mmHg 52%
    07:00 +21°C° 0.3 mm 4 m/s 671 mmHg 48%
    08:00 +22°C° 0.3 mm 5 m/s 671 mmHg 44%
    09:00 +24°C° 0.3 mm 7 m/s 671 mmHg 39%
    10:00 +26°C° 0 mm 7 m/s 671 mmHg 37%
    11:00 +26°C° 0 mm 8 m/s 671 mmHg 35%
    12:00 +27°C° 0 mm 8 m/s 671 mmHg 33%
    13:00 +27°C° 0 mm 7 m/s 670 mmHg 33%
    14:00 +27°C° 0 mm 6 m/s 669 mmHg 32%
    15:00 +27°C° 0 mm 5 m/s 669 mmHg 31%
    16:00 +26°C° 0.5 mm 5 m/s 668 mmHg 38%
    17:00 +23°C° 0.5 mm 4 m/s 668 mmHg 45%
    18:00 +22°C° 0.5 mm 3 m/s 667 mmHg 52%
    19:00 +21°C° 0 mm 3 m/s 667 mmHg 56%
    20:00 +20°C° 0 mm 2 m/s 668 mmHg 59%
    21:00 +20°C° 0 mm 1 m/s 668 mmHg 63%
    22:00 +20°C° 0.2 mm 1 m/s 667 mmHg 66%
    23:00 +19°C° 0.2 mm 1 m/s 667 mmHg 69%

    Demain, 25 Mai, Samedi

    Heure Température Précipitation Vent Pression Humidité
    00:00 +19°C° 0.2 mm 1 m/s 667 mmHg 73%
    01:00 +19°C° 1.9 mm 1 m/s 666 mmHg 75%
    02:00 +18°C° 1.9 mm 1 m/s 666 mmHg 77%
    03:00 +18°C° 1.9 mm 1 m/s 666 mmHg 79%
    04:00 +18°C° 3.4 mm 1 m/s 666 mmHg 80%
    05:00 +16°C° 3.4 mm 2 m/s 666 mmHg 82%
    06:00 +16°C° 3.4 mm 2 m/s 666 mmHg 83%
    07:00 +16°C° 1.2 mm 2 m/s 666 mmHg 81%
    08:00 +16°C° 1.2 mm 2 m/s 667 mmHg 78%
    09:00 +16°C° 1.2 mm 2 m/s 667 mmHg 76%
    10:00 +16°C° 1 mm 2 m/s 667 mmHg 77%
    11:00 +16°C° 1 mm 2 m/s 666 mmHg 78%
    12:00 +16°C° 1 mm 3 m/s 666 mmHg 80%
    13:00 +16°C° 0.6 mm 3 m/s 666 mmHg 78%
    14:00 +15°C° 0.6 mm 4 m/s 666 mmHg 77%
    15:00 +15°C° 0.6 mm 4 m/s 666 mmHg 75%
    16:00 +14°C° 0.4 mm 4 m/s 666 mmHg 77%
    17:00 +14°C° 0.4 mm 4 m/s 666 mmHg 78%
    18:00 +14°C° 0.4 mm 4 m/s 666 mmHg 79%
    19:00 +13°C° 0.2 mm 4 m/s 666 mmHg 81%
    20:00 +12°C° 0.2 mm 4 m/s 666 mmHg 82%
    21:00 +12°C° 0.2 mm 4 m/s 667 mmHg 83%
    22:00 +11°C° 0.1 mm 4 m/s 666 mmHg 82%
    23:00 +11°C° 0.1 mm 4 m/s 666 mmHg 81%

    Après-demain, 26 Mai, Dimanche

    Heure Température Précipitation Vent Pression Humidité
    00:00 +11°C° 0.1 mm 3 m/s 666 mmHg 80%
    01:00 +10°C° 0.1 mm 3 m/s 666 mmHg 81%
    02:00 +10°C° 0.1 mm 3 m/s 666 mmHg 83%
    03:00 +10°C° 0.1 mm 3 m/s 665 mmHg 84%
    04:00 +10°C° 0 mm 3 m/s 666 mmHg 82%
    05:00 +10°C° 0 mm 3 m/s 666 mmHg 80%
    06:00 +10°C° 0 mm 4 m/s 666 mmHg 78%
    07:00 +12°C° 0 mm 4 m/s 666 mmHg 72%
    08:00 +13°C° 0 mm 5 m/s 667 mmHg 65%
    09:00 +14°C° 0 mm 5 m/s 667 mmHg 59%
    10:00 +15°C° 0 mm 6 m/s 668 mmHg 56%
    11:00 +16°C° 0 mm 7 m/s 668 mmHg 54%
    12:00 +17°C° 0 mm 8 m/s 668 mmHg 51%
    13:00 +16°C° 0.1 mm 8 m/s 668 mmHg 54%
    14:00 +16°C° 0.1 mm 8 m/s 668 mmHg 57%
    15:00 +15°C° 0.1 mm 8 m/s 667 mmHg 61%
    16:00 +15°C° 0 mm 7 m/s 667 mmHg 62%
    17:00 +14°C° 0 mm 7 m/s 667 mmHg 64%
    18:00 +13°C° 0 mm 6 m/s 667 mmHg 65%
    19:00 +13°C° 0 mm 5 m/s 667 mmHg 68%
    20:00 +12°C° 0 mm 4 m/s 668 mmHg 72%
    21:00 +11°C° 0 mm 3 m/s 668 mmHg 75%
    22:00 +11°C° 0 mm 3 m/s 668 mmHg 77%
    23:00 +11°C° 0 mm 3 m/s 667 mmHg 79%

    27 Mai, Lundi

    Heure Température Précipitation Vent Pression Humidité
    00:00 +10°C° 0 mm 3 m/s 667 mmHg 81%
    01:00 +10°C° 0 mm 3 m/s 667 mmHg 82%
    02:00 +10°C° 0 mm 3 m/s 667 mmHg 84%
    03:00 +9°C° 0 mm 3 m/s 666 mmHg 86%
    04:00 +10°C° 0 mm 3 m/s 667 mmHg 84%
    05:00 +10°C° 0 mm 3 m/s 667 mmHg 81%
    06:00 +11°C° 0 mm 4 m/s 667 mmHg 79%
    07:00 +12°C° 0 mm 3 m/s 668 mmHg 73%
    08:00 +13°C° 0 mm 3 m/s 668 mmHg 68%
    09:00 +14°C° 0 mm 3 m/s 669 mmHg 62%
    10:00 +14°C° 0 mm 3 m/s 669 mmHg 62%
    11:00 +16°C° 0 mm 3 m/s 669 mmHg 61%
    12:00 +16°C° 0 mm 3 m/s 669 mmHg 60%
    13:00 +17°C° 0.1 mm 3 m/s 669 mmHg 58%
    14:00 +17°C° 0.1 mm 3 m/s 669 mmHg 55%
    15:00 +18°C° 0.1 mm 4 m/s 668 mmHg 53%
    16:00 +18°C° 0.1 mm 4 m/s 668 mmHg 55%
    17:00 +17°C° 0.1 mm 4 m/s 668 mmHg 57%
    18:00 +17°C° 0.1 mm 3 m/s 669 mmHg 59%
    19:00 +16°C° 0 mm 3 m/s 669 mmHg 64%
    20:00 +15°C° 0 mm 2 m/s 669 mmHg 69%
    21:00 +14°C° 0 mm 1 m/s 669 mmHg 73%
    22:00 +13°C° 0 mm 1 m/s 669 mmHg 75%
    23:00 +13°C° 0 mm 1 m/s 669 mmHg 77%

    28 Mai, Mardi

    Heure Température Précipitation Vent Pression Humidité
    00:00 +13°C° 0 mm 1 m/s 669 mmHg 79%
    01:00 +12°C° 0 mm 1 m/s 668 mmHg 77%
    02:00 +12°C° 0 mm 1 m/s 668 mmHg 74%
    03:00 +12°C° 0 mm 1 m/s 668 mmHg 72%
    04:00 +13°C° 0 mm 1 m/s 668 mmHg 65%
    05:00 +14°C° 0 mm 1 m/s 669 mmHg 57%
    06:00 +15°C° 0 mm 1 m/s 669 mmHg 49%
    07:00 +17°C° 0 mm 2 m/s 670 mmHg 44%
    08:00 +18°C° 0 mm 2 m/s 670 mmHg 39%
    09:00 +20°C° 0 mm 3 m/s 671 mmHg 34%
    10:00 +21°C° 0 mm 4 m/s 671 mmHg 33%
    11:00 +22°C° 0 mm 6 m/s 671 mmHg 32%
    12:00 +23°C° 0 mm 7 m/s 671 mmHg 30%
    13:00 +23°C° 0 mm 7 m/s 670 mmHg 30%
    14:00 +24°C° 0 mm 6 m/s 670 mmHg 30%
    15:00 +24°C° 0 mm 6 m/s 670 mmHg 30%
    16:00 +23°C° 0 mm 5 m/s 669 mmHg 32%
    17:00 +23°C° 0 mm 4 m/s 669 mmHg 34%
    18:00 +22°C° 0 mm 3 m/s 669 mmHg 36%
    19:00 +21°C° 0 mm 3 m/s 669 mmHg 38%
    20:00 +20°C° 0 mm 2 m/s 669 mmHg 41%
    21:00 +19°C° 0 mm 2 m/s 669 mmHg 44%
    22:00 +19°C° 0 mm 2 m/s 669 mmHg 44%
    23:00 +19°C° 0 mm 2 m/s 669 mmHg 44%

    29 Mai, Mercredi

    Heure Température Précipitation Vent Pression Humidité
    00:00 +18°C° 0 mm 3 m/s 668 mmHg 45%
    01:00 +18°C° 0 mm 4 m/s 668 mmHg 43%
    02:00 +17°C° 0 mm 5 m/s 668 mmHg 42%
    03:00 +17°C° 0 mm 6 m/s 668 mmHg 41%
    04:00 +19°C° 0 mm 6 m/s 668 mmHg 40%
    05:00 +19°C° 0 mm 6 m/s 669 mmHg 39%
    06:00 +20°C° 0 mm 6 m/s 669 mmHg 38%
    07:00 +22°C° 0 mm 7 m/s 670 mmHg 35%
    08:00 +23°C° 0 mm 8 m/s 671 mmHg 31%
    09:00 +26°C° 0 mm 10 m/s 671 mmHg 27%
    10:00 +27°C° 0 mm 9 m/s 672 mmHg 27%
    11:00 +27°C° 0 mm 8 m/s 672 mmHg 27%
    12:00 +28°C° 0 mm 7 m/s 672 mmHg 27%
    13:00 +27°C° 0 mm 6 m/s 672 mmHg 29%
    14:00 +27°C° 0 mm 5 m/s 672 mmHg 32%
    15:00 +26°C° 0 mm 4 m/s 671 mmHg 34%
    16:00 +25°C° 0 mm 4 m/s 671 mmHg 44%
    17:00 +22°C° 0 mm 4 m/s 671 mmHg 54%
    18:00 +20°C° 0 mm 5 m/s 671 mmHg 64%
    19:00 +19°C° 0.1 mm 5 m/s 671 mmHg 70%
    20:00 +16°C° 0.1 mm 5 m/s 672 mmHg 76%
    21:00 +15°C° 0.1 mm 5 m/s 672 mmHg 82%
    22:00 +15°C° 0 mm 5 m/s 672 mmHg 83%
    23:00 +14°C° 0 mm 5 m/s 672 mmHg 84%
    Voir plus